DW7572 Weather Reports


time (UTC)temp
C
wind
direction
speed
KPH
gust
KPH
rain 1hr
cm
rain 24hr
cm
rain mn
cm
humidity
%
barometer
mb
20260902034517 21 68 1.6 4.8 0.00 0.03 0.03 95 1013.3
20260902033517 21 68 3.2 6.4 0.00 0.03 0.03 95 1013.5
20260902032517 21 90 4.8 11.3 0.00 0.03 0.03 95 1013.0
20260902031517 21 68 1.6 4.8 0.00 0.03 0.03 95 1013.5
20260902030538 21 68 4.8 6.4 0.00 0.03 0.03 95 1013.3
20260902025537 21 45 4.8 6.4 0.00 0.03 0.03 95 1013.7
20260902024517 22 45 6.4 8.0 0.00 0.03 0.03 95 1013.8
20260902023517 21 45 4.8 6.4 0.00 0.03 0.03 95 1013.8
20260902022537 21 45 6.4 8.0 0.00 0.03 0.03 95 1013.5
20260902021517 21 45 1.6 4.8 0.00 0.03 0.03 95 1013.4
20260902020537 21 0.0 0.0 0.00 0.03 0.03 95 1013.4
20260902015517 22 45 4.8 6.4 0.00 0.03 0.03 95 1013.3
20260902014517 21 45 6.4 8.0 0.00 0.03 0.03 94 1013.1
20260902013517 22 45 4.8 6.4 0.00 0.03 0.03 94 1013.1
20260902012517 22 45 3.2 6.4 0.00 0.03 0.03 94 1013.1
20260902011517 22 45 1.6 3.2 0.00 0.03 0.03 93 1013.0
20260902010516 22 45 1.6 3.2 0.00 0.03 0.03 93 1012.8
20260902005517 23 45 3.2 4.8 0.00 0.03 0.03 92 1013.1
20260902004517 23 45 1.6 3.2 0.00 0.03 0.03 91 1013.2
20260902003516 23 45 1.6 4.8 0.00 0.03 0.03 90 1013.1
20260902002517 24 45 4.8 8.0 0.00 0.03 0.03 89 1012.9
20260902001516 25 45 4.8 9.7 0.00 0.03 0.03 88 1013.1
20260901235518 25 23 6.4 8.0 0.00 0.03 0.03 89 1013.2
20260901234516 25 23 6.4 9.7 0.00 0.03 0.03 87 1013.5
20260901233517 26 23 6.4 8.0 0.00 0.03 0.03 85 1013.5
20260901232517 26 23 8.0 14.5 0.00 0.03 0.03 84 1013.6
20260901231517 26 45 8.0 12.9 0.00 0.03 0.03 84 1013.6
20260901230516 27 45 8.0 9.7 0.00 0.03 0.03 83 1013.6
20260901225517 27 23 8.0 12.9 0.00 0.03 0.03 84 1013.5
20260901224516 27 68 4.8 8.0 0.00 0.03 0.03 86 1013.5
20260901223516 27 68 4.8 6.4 0.00 0.03 0.03 86 1013.5
20260901222516 27 68 4.8 8.0 0.00 0.03 0.03 84 1013.5
20260901221517 27 68 4.8 8.0 0.00 0.03 0.03 84 1013.5
20260901220516 27 68 4.8 6.4 0.00 0.03 0.03 82 1013.5
20260901215517 27 68 3.2 6.4 0.00 0.03 0.03 80 1013.6
20260901214516 27 68 1.6 4.8 0.00 0.03 0.03 80 1013.5
20260901213536 27 68 1.6 6.4 0.00 0.03 0.03 79 1013.7
20260901212517 27 68 1.6 4.8 0.00 0.03 0.03 80 1013.7
20260901211517 27 68 3.2 8.0 0.00 0.03 0.03 78 1013.7
20260901210516 27 0.0 1.6 0.00 0.03 0.03 78 1013.7
20260901205536 27 68 1.6 4.8 0.00 0.03 0.03 76 1013.8
20260901204537 27 45 4.8 8.0 0.00 0.03 0.03 77 1013.9
20260901203516 27 45 1.6 8.0 0.00 0.03 0.03 76 1013.9
20260901202516 27 45 6.4 8.0 0.00 0.03 0.03 75 1013.9
20260901201557 27 68 1.6 6.4 0.00 0.03 0.03 77 1014.1
20260901200516 27 68 1.6 4.8 0.00 0.03 0.03 73 1014.2
20260901195516 27 68 3.2 6.4 0.00 0.03 0.03 77 1014.3
20260901194516 27 68 1.6 8.0 0.00 0.03 0.03 77 1014.2
20260901193556 27 90 1.6 6.4 0.00 0.03 0.03 76 1014.2
20260901192516 27 90 3.2 8.0 0.00 0.03 0.03 77 1014.1
20260901191537 27 68 4.8 11.3 0.00 0.03 0.03 77 1014.2
20260901190516 27 68 3.2 6.4 0.00 0.03 0.03 77 1014.3
20260901185536 27 90 4.8 8.0 0.00 0.03 0.03 76 1014.3
20260901184516 27 90 1.6 4.8 0.00 0.03 0.03 79 1014.5
20260901183516 27 90 1.6 6.4 0.00 0.03 0.03 77 1014.6
20260901182516 27 135 1.6 4.8 0.00 0.03 0.03 75 1014.8
20260901181516 27 0.0 4.8 0.00 0.03 0.03 72 1015.0
20260901180517 27 0.0 1.6 0.00 0.03 0.03 74 1015.0
20260901175516 27 135 1.6 4.8 0.00 0.03 0.03 73 1015.1
20260901174515 27 135 3.2 8.0 0.00 0.03 0.03 75 1015.3
20260901173516 27 113 3.2 9.7 0.00 0.03 0.03 73 1014.9
20260901172516 27 90 4.8 8.0 0.00 0.03 0.03 75 1014.9
20260901171515 27 90 1.6 4.8 0.00 0.03 0.03 72 1015.4
20260901170536 27 45 1.6 6.4 0.00 0.03 0.03 70 1015.3
20260901165515 27 45 3.2 6.4 0.00 0.03 0.03 73 1015.3
20260901164536 27 68 6.4 11.3 0.00 0.03 0.03 72 1015.3
20260901163516 26 68 6.4 9.7 0.00 0.03 0.03 73 1015.2
20260901162516 26 68 3.2 8.0 0.00 0.03 0.03 76 1015.3
20260901161516 26 45 4.8 8.0 0.00 0.03 0.03 77 1015.3
20260901160515 26 68 4.8 9.7 0.00 0.03 0.03 74 1015.5
20260901155516 26 90 1.6 6.4 0.00 0.03 0.03 76 1015.5
20260901154540 26 0.0 3.2 0.00 0.03 0.03 77 1015.5
20260901153515 25 68 3.2 6.4 0.00 0.03 0.03 80 1015.4
20260901152536 25 68 1.6 4.8 0.00 0.03 0.03 80 1015.5
20260901151517 25 0.0 3.2 0.00 0.03 0.03 84 1015.4
20260901150558 23 0.0 1.6 0.00 0.03 0.03 86 1015.3
20260901145517 23 0.0 3.2 0.00 0.03 0.03 88 1015.3
20260901144517 22 0.0 3.2 0.00 0.03 0.03 89 1015.2
20260901143517 22 0.0 3.2 0.00 0.03 0.03 91 1015.2
20260901142537 22 0.0 0.0 0.00 0.03 0.03 94 1015.3
20260901141537 21 0.0 0.0 0.00 0.03 0.03 95 1015.4
20260901140522 21 0.0 0.0 0.00 0.03 0.03 96 1015.3
20260901135518 20 0.0 0.0 0.00 0.03 0.03 97 1015.6
20260901134517 20 0.0 0.0 0.00 0.03 0.03 97 1015.6
20260901133517 20 0.0 0.0 0.00 0.03 0.03 98 1015.7
20260901132518 18 0.0 0.0 0.00 0.03 0.03 98 1015.6
20260901131517 18 0.0 0.0 0.00 0.03 0.03 98 1015.6
20260901130517 17 0.0 0.0 0.00 0.03 0.03 98 1015.4
20260901125538 16 0.0 0.0 0.00 0.03 0.03 98 1015.3
20260901124538 16 0.0 0.0 0.00 0.03 0.03 98 1015.2
20260901123557 16 0.0 0.0 0.00 0.03 0.03 98 1015.0
20260901122517 16 0.0 0.0 0.03 0.03 0.03 98 1015.0
20260901121518 16 0.0 0.0 0.03 0.03 0.03 98 1014.8
20260901120518 16 0.0 0.0 0.03 0.03 0.03 98 1014.8
20260901115519 15 0.0 0.0 0.03 0.03 0.03 98 1014.7
20260901114537 15 0.0 0.0 0.03 0.03 0.03 98 1014.8
20260901113518 15 0.0 1.6 0.03 0.03 0.03 98 1014.7
20260901112517 15 0 3.2 4.8 0.00 0.00 0.00 98 1014.8
20260901111517 16 0.0 3.2 0.00 0.00 0.00 98 1015.4
20260901110538 15 0.0 0.0 0.00 0.00 0.00 98 1014.7
20260901105517 15 0.0 0.0 0.00 0.00 0.00 98 1014.7
20260901104517 16 0.0 0.0 0.00 0.00 0.00 98 1014.7
20260901103538 16 0.0 0.0 0.00 0.00 0.00 98 1014.6
20260901102516 15 0.0 0.0 0.00 0.00 0.00 98 1014.6
20260901101517 16 0.0 0.0 0.00 0.00 0.00 98 1014.5
20260901100557 16 0.0 0.0 0.00 0.00 0.00 98 1014.5
20260901095517 16 0.0 0.0 0.00 0.00 0.00 98 1014.4
20260901094516 16 0.0 0.0 0.00 0.00 0.00 97 1014.5
20260901093516 16 0.0 0.0 0.00 0.00 0.00 98 1014.5
20260901092536 16 0.0 0.0 0.00 0.00 0.00 98 1014.5
20260901091517 16 0.0 0.0 0.00 0.00 0.00 98 1014.3
20260901090516 16 0.0 0.0 0.00 0.00 0.00 97 1014.2
20260901085516 16 0.0 0.0 0.00 0.00 0.00 97 1014.2
20260901084517 16 0.0 0.0 0.00 0.00 0.00 97 1014.2
20260901083517 16 0 1.6 3.2 0.00 0.00 0.00 97 1014.3
20260901082516 16 0 3.2 4.8 0.00 0.00 0.00 97 1014.4
20260901081536 16 0.0 3.2 0.00 0.00 0.00 97 1014.5
20260901080517 16 0 3.2 4.8 0.00 0.00 0.00 97 1014.3
20260901075517 16 0 1.6 3.2 0.00 0.00 0.00 97 1014.3
20260901074516 16 0.0 0.0 0.00 0.00 0.00 97 1014.4
20260901073516 16 0.0 1.6 0.00 0.00 0.00 97 1014.2
20260901072516 16 0.0 0.0 0.00 0.00 0.00 96 1014.4
20260901071536 16 0.0 0.0 0.00 0.00 0.00 97 1014.4
20260901070518 16 0.0 1.6 0.00 0.00 0.00 97 1014.5
20260901065519 16 0.0 1.6 0.00 0.00 0.00 97 1014.5
20260901064516 16 0.0 0.0 0.00 0.00 0.00 96 1014.5
20260901063554 16 0.0 0.0 0.00 0.00 0.00 95 1014.6
20260901062536 17 0 3.2 4.8 0.00 0.00 0.00 96 1014.7
20260901061516 17 0 3.2 4.8 0.00 0.00 0.00 96 1014.6
20260901060520 17 0 3.2 4.8 0.00 0.00 0.00 96 1014.7
20260901055521 17 0 3.2 4.8 0.00 0.00 0.00 96 1014.5
20260901054517 17 0 1.6 3.2 0.00 0.00 0.00 96 1014.5
20260901053518 17 0 3.2 6.4 0.00 0.00 0.00 96 1014.4
20260901052537 17 0 3.2 4.8 0.00 0.00 0.00 96 1014.3
20260901051518 17 0.0 0.0 0.00 0.00 0.00 95 1014.4
20260901050536 17 0.0 1.6 0.00 0.00 0.00 95 1014.4
20260901045517 17 0.0 0.0 0.00 0.00 0.00 95 1014.2
20260901044518 17 0.0 0.0 0.00 0.00 0.00 95 1014.2
20260901043522 17 0.0 0.0 0.00 0.00 0.00 95 1014.1
20260901042517 17 0.0 0.0 0.00 0.00 0.00 95 1014.0
20260901041517 17 0.0 0.0 0.00 0.00 0.00 94 1013.9
20260901040538 18 0 3.2 4.8 0.00 0.00 0.00 95 1013.9
20260901035517 18 0 1.6 4.8 0.00 0.00 0.00 94 1013.9